Probability
0 0 0 0 0 0 0 0 0 0 0 0 0 0 0 0 0 0 0 0 0 0 0 0 0 0 0 0 0 0 0 0 0 0 1 1 1 0
0 0 0 0 0 0 0 0 0 0 0 0 0 0 0 0 0 0 0 0 0 0 0 0 0 0 0 0 0 0 0 0 0 0 0 0 0 0
0 0 0 0 0 0 0 0 0 0 0 0 0 0 0 0 0 0 0 0 0 0 0 0 0 0 0 0 0 0 0 0 0 0 0 0 0 0
0 0 0 0 0 0 0 0 0 0 0 0 0 0 0 0 0 0 0 0 0 0 0 0 0 0 0 0 0 0 0 0 0 0 0 0 0 0
0 0 0 0 0 0 0 0 0 0 0 0 0 0 0 0 0 0 0 0 0 0 0 0 0 0 0 0 0 0 0 0 0 0 0 0 0 0
0 0 0 0 0 0 0 0 0 0 0 0 0 0 0 0 0 0 0 0 0 0 0 0 0 0 0 0 0 0 0 0 0 0 0 0 0 0
0 0 0 0 0 0 0 0 0 0 0 0 0 0 0 0 0 0 0 0 0 0 0 0 0 0 0 0 0 0 0 0 0 0 0 0 0 0
0 0 0 0 0 0 0 0 0 0 0 0 0 0 0 0 0 0 0 0 0 0 0 0 0 0 0 0 0 0 0 0 0 0 0 0 0 0
0 0 0 0 0 0 0 0 0 0 0 0 0 0 0 0 0 0 0 0 0 0 0 0 0 0 0 0 0 0 0 0 0 0 0 0 0 0
0 0 0 0 0 0 0 0 0 0 0 0 0 0 0 0 0 0 0 0 0 0 0 0 0 0 0 0 0 0 0 0 0 0 0 0 0 0
0 0 0 0 0 0 0 0 0 0 0 0 0 0 0 0 0 0 0 0 0 0 0 0 0 0 0 0 0 0 0 0 0 0 0 0 0 0
0 0 0 0 0 0 0 0 0 0 0 0 0 0 0 0 0 0 0 0 0 0 0 0 0 0 0 0 0 0 0 0 0 0 0 0 0 0
0 0 0 0 0 0 0 0 0 0 0 0 0 0 0 0 0 0 0 0 0 0 0 0 0 0 0 0 0 0 0 0 0 0 0 0 0 0
0 0 0 0 0 0 0 0 0 0 0 0 0 0 0 0 0 0 0 0 0 0 0 0 0 0 0 0 0 0 0 0 0 0 0 0 0 0
0 0 0 0 0 0 0 0 0 0 0 0 0 0 0 0 0 0 0 0 0 0 0 0 0 0 0 0 0 0 0 0 0 0 0 0 0 0
0 0 0 0 0 0 0 0 0 0 0 0 0 0 0 0 0 0 0 0 0 0 0 0 0 0 0 0 0 0 0 0 0 0 0 0 0 0
0 0 0 0 0 0 0 0 0 0 0 0 0 0 0 0 0 0 0 0 0 0 0 0 0 0 0 0 0 0 0 0 0 0 0 0 0 0
0 0 0 0 0 0 0 0 0 0 0 0 0 0 0 0 0 0 0 0 0 0 0 0 0 0 0 0 0 0 0 0 0 0 0 0 0 0
0 0 0 0 0 0 0 0 0 0 0 0 0 0 0 0 0 0 0 0 0 0 0 0 0 0 0 0 0 0 0 0 0 0 0 0 0 0
0 0 0 0 0 0 0 0 0 0 0 0 0 0 0 0 0 0 0 0 0 0 0 0 0 0 0 0 0 0 0 0 0 0 0 0 0 0
0 0 0 0 0 0 0 0 0 0 0 0 0 0 0 0 0 0 0 0 0 0 0 0 0 0 0 0 0 0 0 0 0 0 0 0 0 0
0 0 0 0 0 0 0 0 0 0 0 0 0 0 0 0 0 0 0 0 0 0 0 0 0 0 0 0 0 0 0 0 0 0 0 0 0 0
0 0 0 0 0 0 0 0 0 0 0 0 0 0 0 0 0 0 0 0 0 0 0 0 0 0 0 0 0 0 0 0 0 0 0 0 0 0
Wind_Speed
2 2 2 2 3 3 3 4 5 6 7 6 4 5 5 6 8 8 9 11 14 15 16 16 16 17 17 17 18 18 18 18 18 19 18 19 19 19
2 2 3 3 3 3 3 4 4 6 7 6 6 7 7 6 9 9 9 13 13 14 15 16 16 17 17 17 18 19 19 19 19 19 19 19 19 20
2 3 3 4 3 3 3 3 4 5 8 8 7 7 9 9 8 8 8 9 8 12 15 16 17 17 17 18 18 19 19 19 19 19 19 19 20 20
3 3 4 3 4 4 4 4 5 5 7 9 8 8 9 9 9 9 8 8 8 12 14 16 17 17 17 18 18 18 18 18 19 19 19 19 20 20
4 4 5 4 5 4 5 5 5 5 6 7 9 7 7 7 9 9 9 8 8 9 13 14 15 16 17 17 18 17 17 18 18 19 18 18 19 19
4 5 5 5 6 6 5 6 5 6 6 7 8 8 7 8 8 8 8 7 8 8 10 11 13 15 16 17 17 16 16 16 17 17 17 18 18 18
5 5 5 6 7 6 5 5 6 5 6 6 7 8 7 7 7 7 9 8 8 7 8 8 8 8 9 12 13 14 15 16 16 17 17 17 17 18
5 5 5 5 6 7 8 8 8 7 8 7 7 8 10 9 8 8 8 9 8 5 7 8 7 8 8 7 12 15 16 16 17 17 17 17 17 17
6 5 5 4 5 6 7 8 8 9 10 9 10 10 10 9 9 10 9 9 10 7 7 9 7 8 7 8 14 16 16 16 16 16 16 16 16 17
6 6 6 6 5 6 6 7 8 8 9 8 9 10 10 10 9 10 10 11 10 7 6 8 7 8 8 8 12 14 15 16 16 16 16 16 17 17
6 6 6 6 7 7 7 8 9 8 8 10 12 13 14 14 11 8 8 7 8 6 4 6 7 8 8 8 8 12 14 15 16 16 17 17 17 17
5 5 6 7 8 9 7 8 9 9 8 8 9 10 10 10 10 8 7 7 7 6 3 4 6 6 7 6 6 7 9 13 16 16 16 17 17 12
5 5 5 8 10 11 9 7 9 9 8 8 7 7 7 6 6 6 6 6 7 7 5 4 6 6 6 7 7 7 7 8 8 10 12 15 17 13
5 5 5 8 10 10 8 8 10 8 5 6 6 6 6 6 6 6 7 8 8 10 9 7 7 7 7 8 8 7 7 8 8 8 8 12 14 15
5 7 8 8 9 7 8 9 7 5 5 6 6 6 6 6 6 6 6 7 8 8 7 8 8 8 8 9 9 9 9 8 7 7 8 9 9 9
5 5 8 9 8 7 5 5 4 5 6 6 7 6 6 6 5 5 5 6 6 6 6 7 8 9 9 10 9 10 9 7 8 8 9 9 9 8
4 4 4 4 5 5 5 4 5 5 5 6 6 6 6 6 6 5 5 6 6 7 7 5 6 7 10 10 9 9 9 9 8 8 9 10 9 8
4 4 5 5 6 6 6 6 5 5 6 6 6 6 6 6 6 6 5 6 7 7 7 6 6 6 6 7 10 10 8 8 8 9 9 10 11 9
4 5 5 6 6 6 6 6 6 6 5 6 6 6 6 6 6 6 6 6 7 7 7 6 6 6 8 9 7 7 8 9 9 9 8 9 11 11
5 6 6 6 6 6 6 6 6 5 5 6 6 6 6 6 6 7 7 7 8 8 7 6 5 6 7 9 9 9 11 10 8 9 9 9 10 13
5 6 6 6 6 6 6 6 6 6 6 6 6 6 6 6 7 7 7 9 8 7 8 7 7 8 7 6 8 9 8 10 11 10 10 9 10 9
6 6 6 6 6 6 6 6 6 6 6 6 6 6 6 6 8 9 8 8 7 7 9 7 7 6 5 7 9 10 10 10 10 13 14 12 8 8
6 7 7 6 6 5 5 6 7 6 6 6 6 6 6 6 7 7 8 7 7 7 7 7 6 5 6 7 8 9 11 11 9 9 8 11 15 18
Wind_Direction
306 301 293 296 294 293 287 278 281 291 294 296 295 296 297 295 301 297 296 302 301 302 303 303 303 301 301 302 302 301 300 299 300 301 300 299 299 299
300 299 297 297 296 295 288 281 274 276 283 292 295 300 298 294 298 295 295 298 292 295 298 300 300 300 299 299 299 298 298 299 300 300 298 298 298 298
289 287 289 291 290 290 286 280 275 272 276 288 293 298 296 297 298 297 296 295 293 293 296 298 299 299 300 299 298 297 296 296 297 297 296 295 296 297
283 286 287 289 287 287 284 280 278 276 277 287 294 297 297 298 299 297 296 294 291 293 295 296 298 298 299 298 298 297 296 296 295 295 295 294 295 295
278 278 280 283 283 283 283 280 280 280 278 281 290 294 295 297 299 295 294 292 290 290 293 293 295 298 299 297 297 296 294 294 294 293 294 294 295 296
278 276 278 276 277 281 280 280 284 285 283 282 287 294 295 299 297 298 297 296 293 291 290 292 294 295 294 294 295 296 295 295 295 296 298 298 297 297
275 276 277 278 279 281 281 284 285 284 286 286 289 294 296 300 298 299 294 297 292 287 292 291 291 289 291 290 291 293 295 296 297 298 300 301 299 298
273 276 277 272 277 278 281 285 286 283 284 285 288 289 293 295 296 294 296 298 294 293 294 289 288 286 287 286 291 293 294 296 298 298 298 298 299 300
271 275 276 278 278 280 283 282 281 278 276 279 283 284 291 296 297 292 288 288 286 297 295 284 284 283 287 287 292 291 293 296 297 298 299 300 300 300
270 273 275 280 279 285 289 288 286 284 281 277 278 283 290 294 290 287 287 286 283 279 279 280 287 287 289 284 284 288 294 298 298 299 300 300 299 299
272 273 274 277 284 289 288 287 288 289 289 284 285 288 292 292 292 290 288 288 287 284 278 277 286 294 286 278 280 285 290 294 296 298 299 299 299 299
278 276 272 275 285 288 281 281 282 287 293 294 289 289 289 288 288 282 281 280 284 283 274 278 285 300 291 277 282 287 288 290 294 296 297 298 300 298
277 278 276 278 282 286 284 278 280 291 290 288 287 287 287 286 285 283 280 274 274 271 277 280 278 278 274 287 287 284 285 291 293 291 290 294 296 296
272 276 280 286 288 288 286 286 292 293 284 284 284 286 289 291 293 291 284 275 270 272 275 270 266 272 277 281 283 286 288 290 289 288 290 294 293 293
277 283 287 289 290 284 282 288 287 278 277 278 281 286 291 293 295 293 290 284 280 276 271 263 263 268 266 269 279 285 293 291 283 287 292 293 292 292
282 286 288 287 282 283 286 280 272 271 273 275 281 285 290 292 291 294 293 297 292 289 280 271 268 268 268 271 273 278 283 282 287 291 293 289 287 282
293 285 282 283 280 278 278 275 273 269 269 273 277 282 286 287 289 292 288 288 284 291 298 297 288 279 270 268 272 272 278 283 285 291 293 290 285 281
286 274 274 275 275 277 278 278 274 271 272 273 273 276 280 284 288 289 284 282 284 288 292 299 305 303 289 265 250 267 276 283 289 288 287 287 288 287
264 268 271 273 274 275 274 273 274 275 275 271 271 273 276 279 282 284 284 283 284 287 289 291 293 295 296 298 282 257 278 288 290 289 287 285 286 290
262 265 269 271 272 272 272 274 276 276 271 273 273 272 272 275 276 277 278 280 284 287 288 284 281 279 277 286 290 286 279 280 286 288 292 292 286 287
263 265 268 271 271 273 273 272 272 273 273 272 271 270 269 270 272 273 274 278 277 280 284 286 287 288 283 279 280 284 284 281 283 285 290 294 298 292
265 266 267 269 269 268 271 270 270 271 272 270 271 271 268 266 269 272 272 274 275 277 282 286 293 289 277 273 283 291 297 301 295 290 280 275 284 286
267 269 269 269 268 266 267 268 269 270 269 269 269 271 272 271 272 273 275 272 274 279 287 293 296 289 284 281 286 291 296 303 307 304 292 289 286 281